Regional Weather Roundup
Issued by NWS

Home | Current Version | Previous Version | Graphics & Text | Print | Product List | Glossary On
Versions: 1 2 3 4 5 6 7 8 9 10 11 12 13 14 15 16 17 18 19 20 21 22 23 24 25 26 27
000
ASUS45 KBOU 212107
RWRCO

WEATHER ROUNDUP FOR COLORADO
NATIONAL WEATHER SERVICE DENVER/BOULDER CO
300 PM MDT THU SEP 21 2017

NOTE: "FAIR" INDICATES FEW OR NO CLOUDS BELOW 12000 FEET WITH NO
SIGNIFICANT WEATHER AND/OR OBSTRUCTIONS TO VISIBILITY.

COZ001>005-013-030-031-212200-
...NORTHWEST COLORADO...

CITY           SKY/WX    TMP DP  RH WIND       PRES   REMARKS
CRAIG          FAIR      80  16   9 SW28G46   29.76F
HAYDEN         FAIR      78  18  10 SW21G36   29.80F
MEEKER         FAIR      77  18  11 S23G40    29.79F
RABBIT EARS PA FAIR      59  25  27 S12G28    30.08S
STEAMBOAT SPGS FAIR      77  21  12 SW18      29.81F
WALDEN         FAIR      70  18  13 SW17G32   29.92S
$$

COZ006>008-011-212200-
...WEST CENTRAL VALLEYS...

CITY           SKY/WX    TMP DP  RH WIND       PRES   REMARKS
GRAND JUNCTION FAIR      84  21  10 SW23G40   29.72F
MONTROSE       FAIR      81  23  11 SW23G30   29.82F
EAGLE          FAIR      78  21  12 SW22G35   29.84F
RIFLE          FAIR      82  16   8 SW13G29   29.75F
DELTA          FAIR      86  23  10 SW17G23   29.79F
NUCLA          FAIR      79  19  11 S23G38    29.89F
$$

COZ017>023-064>068-212200-
...SOUTHWEST COLORADO...

CITY           SKY/WX    TMP DP  RH WIND       PRES   REMARKS
DURANGO        FAIR      74  29  19 SW15G23   29.99F
CORTEZ         FAIR      81  17   9 SW25G31   29.90F
PAGOSA SPRINGS FAIR      72  17  12 SW15G24   30.06F
TELLURIDE      FAIR      64  26  24 S21G26    30.08F
WOLF CREEK PAS FAIR      48  27  43 S29G43    30.30F
$$

COZ009-010-012-014-032>034-037-058>063-212200-
...CENTRAL COLORADO...

CITY           SKY/WX    TMP DP  RH WIND       PRES   REMARKS
ASPEN          FAIR      77  16  10 S17G23    29.91F
BUENA VISTA    FAIR      76  15   9 SE15G28   29.94F
COPPER MTN     FAIR      59   9  13 SE18G26   30.22F
BERTHOUD PASS  FAIR      52  43  71 W14G31    30.26S
COTTONWOOD PAS FAIR      72   5   7 W13G29    30.08F
GUNNISON       FAIR      74  23  15 SW7       29.94F
KREMMLING      FAIR      82   9   6 SW12G22   29.88F
LEADVILLE      FAIR      64  10  12 S16G35    30.06F
MONARCH PASS   FAIR      55  16  21 SW31G47   30.34F
SALIDA         FAIR      77  18  10 S20G30    29.99F
SUNLIGHT       FAIR      59  21  23 S14G28    30.13F
WILKERSON PASS FAIR      61  19  20 SW15G25   30.19F
$$

COZ069>075-212200-
...SAN LUIS VALLEY/SANGRE DE CRISTO MOUNTAINS...

CITY           SKY/WX    TMP DP  RH WIND       PRES   REMARKS
ALAMOSA        FAIR      75  24  15 SW21G30   30.01F
DEL NORTE      FAIR      72  26  17 W22G31    30.04F
LA VETA PASS   FAIR      64  27  24 MISG      30.26F
SAGUACHE       FAIR      73  27  17 S23G30    29.99F
$$

COZ035-036-038>040-212200-
...NORTHERN COLORADO FRONT RANGE...

CITY           SKY/WX    TMP DP  RH WIND       PRES   REMARKS
DENVER INTL AP FAIR      91  21   8 S20G25    29.70F
DMNS CITY PARK   N/A     88  26  10 S12G23    29.67F
AURORA         MOSUNNY   89  21   8 S22G29    29.72F
FRONT RANGE AP MOSUNNY   91  21   8 S3G17     29.72F
ERIE MUNI ARPT FAIR      89  18   7 SE3       29.73F
BOULDER MUN AP FAIR      88  27  11 NE3       29.70F
CENTENNIAL     FAIR      86  19   8 S18G31    29.73F
BROOMFIELD     MOSUNNY   88  25  10 NE13      29.73F
FORT COLLINS   FAIR      89  27  10 SE13      29.70F
LONGMONT       FAIR      90  26  10 E6        29.70F
$$

COZ041-046-047-076>085-087-088-212200-
...PIKES PEAK/PALMER DIVIDE AND SOUTHERN FOOTHILLS...

CITY           SKY/WX    TMP DP  RH WIND       PRES   REMARKS
COLO. SPRINGS  FAIR      84  26  12 S24G31    29.84F
A. F. ACADEMY  FAIR      83  14   7 SW14G23   29.83S
SCHRIEVER AFB  FAIR      82  23  11 S17G28    29.85S
CHEYENNE MTN   FAIR      78  22  12 SE23      29.82F
ELLICOTT         N/A    N/A N/A N/A SW21G26   29.83F
FALCON         FAIR      80  21  11 S23G36    29.89F
FORT CARSON    FAIR      84  23  10 S15G25    29.80F
LIMON          FAIR      87  24  10 S14G24    29.78F
MONUMENT HILL  FAIR      79  23  12 W13G18    29.89F
CANON CITY     SUNNY     88  30  12 SE5       29.77F
WALSENBURG     FAIR      86  27  11 SW20G26   29.86F
TRINIDAD       FAIR      88  28  11 W21G30    29.84F
$$

COZ042>045-048>051-090-091-212200-
...NORTHEAST COLORADO...

CITY           SKY/WX    TMP DP  RH WIND       PRES   REMARKS
GREELEY ARPT   FAIR      90  27  10 SE9       29.68F
AKRON          FAIR      93  19   7 SW13G25   29.70F
BURLINGTON     FAIR      94  33  11 S26G32    29.71F
WRAY           FAIR      97  25   7 S22G31    29.66S
YUMA           FAIR      91  30  11 S15G25    29.67F
STERLING       FAIR      91  32  12 CALM      29.64F
HOLYOKE        NOT AVBL
FORT MORGAN    FAIR      93  21   7 S9        29.69F
$$

COZ086-089-092>099-212200-
...SOUTHEAST COLORADO...

CITY           SKY/WX    TMP DP  RH WIND       PRES   REMARKS
PUEBLO         FAIR      93  25   8 N10       29.71F
LA JUNTA       FAIR      93  25   8 MISG      29.71F
LAMAR          FAIR      96  25   8 SW26G35   29.67F
SPRINGFIELD      N/A     90  32  12 SW25G37   29.78F
$$




USA.gov is the U.S. government's official web portal to all federal, state and local government web resources and services.